�������l�o���
Date,Time,MP-1(��Sv/h),MP-2(��Sv/h),MP-3(��Sv/h),MP-4(��Sv/h),MP-5(��Sv/h),MP-6(��Sv/h),MP-7(��Sv/h),MP-8(��Sv/h),����,����(m/s),���J
2020/10/24,00:00,0.642,0.908,0.581,1.114,0.801,0.380,0.657,0.622,�k�k��,7.6,��
2020/10/24,00:10,0.640,0.910,0.581,1.114,0.801,0.380,0.657,0.622,�k��,6.0,��
2020/10/24,00:20,0.641,0.908,0.581,1.110,0.802,0.379,0.656,0.625,�k��,6.6,��
2020/10/24,00:30,0.642,0.909,0.582,1.113,0.801,0.380,0.654,0.625,�k��,8.0,��
2020/10/24,00:40,0.639,0.911,0.580,1.111,0.802,0.379,0.656,0.621,�k��,8.2,��
2020/10/24,00:50,0.640,0.910,0.582,1.114,0.803,0.380,0.657,0.622,�k��,6.8,��
2020/10/24,01:00,0.641,0.911,0.581,1.113,0.803,0.380,0.656,0.624,�k��,7.6,��
2020/10/24,01:10,0.642,0.910,0.584,1.114,0.802,0.380,0.655,0.623,�k��,9.4,��
2020/10/24,01:20,0.641,0.912,0.583,1.115,0.803,0.380,0.655,0.623,�k��,6.8,��
2020/10/24,01:30,0.640,0.911,0.582,1.116,0.804,0.379,0.657,0.623,�k��,7.0,��
2020/10/24,01:40,0.641,0.911,0.583,1.114,0.802,0.379,0.655,0.623,�k��,7.5,��
2020/10/24,01:50,0.639,0.912,0.582,1.115,0.801,0.379,0.655,0.622,�k��,6.2,��
2020/10/24,02:00,0.642,0.913,0.585,1.114,0.803,0.380,0.655,0.624,�k��,5.8,��
2020/10/24,02:10,0.639,0.910,0.585,1.115,0.803,0.379,0.656,0.624,�k��,5.7,��
2020/10/24,02:20,0.641,0.913,0.584,1.116,0.802,0.379,0.656,0.622,�k��,5.9,��
2020/10/24,02:30,0.641,0.912,0.584,1.115,0.803,0.378,0.656,0.623,�k�k��,5.9,��
2020/10/24,02:40,0.640,0.910,0.584,1.115,0.803,0.379,0.656,0.624,�k��,6.3,��
2020/10/24,02:50,0.641,0.912,0.583,1.115,0.804,0.380,0.657,0.622,�k��,7.1,��
2020/10/24,03:00,0.640,0.913,0.584,1.117,0.803,0.378,0.657,0.623,�k��,5.0,��
2020/10/24,03:10,0.640,0.913,0.583,1.114,0.802,0.380,0.658,0.622,�k��,4.2,��
2020/10/24,03:20,0.641,0.912,0.583,1.115,0.802,0.379,0.656,0.621,�k��,3.5,��
2020/10/24,03:30,0.640,0.913,0.583,1.116,0.803,0.379,0.656,0.623,�k�k��,3.7,��
2020/10/24,03:40,0.640,0.910,0.583,1.115,0.802,0.379,0.656,0.624,�k�k��,6.0,��
2020/10/24,03:50,0.642,0.914,0.582,1.119,0.803,0.379,0.658,0.623,�k�k��,6.1,��
2020/10/24,04:00,0.641,0.913,0.584,1.117,0.801,0.380,0.658,0.621,�k�k��,6.8,��
2020/10/24,04:10,0.642,0.916,0.584,1.116,0.801,0.379,0.656,0.622,�k�k��,6.6,��
2020/10/24,04:20,0.643,0.912,0.586,1.117,0.804,0.378,0.657,0.622,�k�k��,5.4,��
2020/10/24,04:30,0.642,0.913,0.584,1.119,0.803,0.380,0.658,0.623,�k��,5.9,��
2020/10/24,04:40,0.644,0.915,0.582,1.117,0.803,0.380,0.656,0.622,�k�k��,5.4,��
2020/10/24,04:50,0.640,0.913,0.584,1.118,0.805,0.378,0.657,0.622,�k��,6.0,��
2020/10/24,05:00,0.641,0.916,0.583,1.119,0.802,0.378,0.659,0.623,�k��,5.5,��
2020/10/24,05:10,0.642,0.914,0.584,1.117,0.804,0.379,0.657,0.624,�k��,3.9,��
2020/10/24,05:20,0.639,0.914,0.584,1.116,0.803,0.378,0.656,0.622,�k��,3.5,��
2020/10/24,05:30,0.643,0.911,0.582,1.115,0.806,0.380,0.658,0.623,�k�k��,4.1,��
2020/10/24,05:40,0.642,0.913,0.582,1.116,0.803,0.379,0.658,0.624,�k�k��,3.6,��
2020/10/24,05:50,0.640,0.914,0.584,1.116,0.804,0.377,0.657,0.623,�k�k��,2.9,��
2020/10/24,06:00,0.642,0.915,0.585,1.118,0.804,0.378,0.658,0.622,�k�k��,2.6,��
2020/10/24,06:10,0.642,0.913,0.583,1.118,0.802,0.380,0.658,0.623,�k�k��,2.3,��
2020/10/24,06:20,0.640,0.914,0.584,1.118,0.804,0.379,0.657,0.622,�k��,2.0,��
2020/10/24,06:30,0.642,0.916,0.585,1.119,0.806,0.378,0.659,0.624,�k�k��,1.1,��
2020/10/24,06:40,0.642,0.913,0.584,1.118,0.803,0.380,0.658,0.623,�k�k��,2.5,��
2020/10/24,06:50,0.642,0.914,0.583,1.118,0.803,0.380,0.658,0.623,�k�k��,2.5,��
2020/10/24,07:00,0.643,0.917,0.587,1.117,0.804,0.378,0.658,0.623,�k�k��,2.5,��
2020/10/24,07:10,0.643,0.912,0.583,1.118,0.806,0.379,0.656,0.623,�k�k��,2.5,��
2020/10/24,07:20,0.642,0.915,0.584,1.118,0.805,0.379,0.658,0.622,�k�k��,3.7,��
2020/10/24,07:30,0.642,0.915,0.584,1.119,0.801,0.378,0.658,0.622,�k�k��,3.4,��
2020/10/24,07:40,0.641,0.914,0.583,1.119,0.803,0.379,0.658,0.622,�k�k��,3.6,��
2020/10/24,07:50,0.641,0.917,0.584,1.119,0.805,0.379,0.656,0.623,�k��,2.0,��
2020/10/24,08:00,0.642,0.913,0.584,1.118,0.806,0.379,0.657,0.621,�k�k��,3.0,��
2020/10/24,08:10,0.644,0.914,0.583,1.119,0.806,0.379,0.656,0.622,�k�k��,2.0,��
2020/10/24,08:20,0.642,0.918,0.585,1.119,0.805,0.378,0.656,0.623,�k,1.7,��
2020/10/24,08:30,0.642,0.915,0.584,1.119,0.806,0.379,0.657,0.623,�k,2.3,��
2020/10/24,08:40,0.643,0.917,0.585,1.122,0.806,0.379,0.656,0.624,�k��,3.3,��
2020/10/24,08:50,0.643,0.917,0.585,1.119,0.807,0.380,0.658,0.623,�k��,4.7,��
2020/10/24,09:00,0.642,0.917,0.584,1.119,0.805,0.380,0.657,0.625,�k��,3.9,��
2020/10/24,09:10,0.643,0.918,0.585,1.121,0.807,0.379,0.657,0.624,�k�k��,0.9,��
2020/10/24,09:20,0.643,0.916,0.586,1.120,0.805,0.380,0.656,0.624,�k�k��,1.2,��
2020/10/24,09:30,0.643,0.917,0.584,1.120,0.807,0.379,0.659,0.625,�k,1.2,��
2020/10/24,09:40,0.642,0.914,0.585,1.120,0.806,0.381,0.655,0.624,���k��,1.5,��
2020/10/24,09:50,0.644,0.917,0.586,1.119,0.807,0.380,0.657,0.624,���k��,0.9,��
2020/10/24,10:00,0.644,0.918,0.585,1.120,0.805,0.380,0.656,0.624,���k��,0.6,��
2020/10/24,10:10,0.643,0.917,0.586,1.120,0.808,0.380,0.655,0.625,���쓌,0.6,��
2020/10/24,10:20,0.645,0.915,0.585,1.121,0.808,0.380,0.657,0.622,-,CALM,��
2020/10/24,10:30,0.646,0.917,0.585,1.120,0.808,0.380,0.656,0.625,���쐼,0.6,��
2020/10/24,10:40,0.645,0.919,0.584,1.120,0.809,0.379,0.657,0.623,�k��,2.0,��
2020/10/24,10:50,0.644,0.918,0.583,1.121,0.806,0.379,0.656,0.622,���k��,2.6,��
2020/10/24,11:00,0.644,0.919,0.585,1.120,0.809,0.381,0.656,0.624,�k��,3.9,��
2020/10/24,11:10,0.645,0.917,0.584,1.122,0.808,0.381,0.656,0.624,���k��,2.6,��
2020/10/24,11:20,0.644,0.920,0.586,1.123,0.806,0.380,0.657,0.625,���k��,2.2,��
2020/10/24,11:30,0.645,0.918,0.586,1.121,0.808,0.379,0.659,0.624,-,CALM,��
2020/10/24,11:40,0.645,0.918,0.586,1.123,0.808,0.380,0.657,0.622,���쐼,0.9,��
2020/10/24,11:50,0.646,0.919,0.585,1.122,0.807,0.379,0.657,0.624,�쐼,0.9,��
2020/10/24,12:00,0.647,0.919,0.587,1.122,0.807,0.381,0.657,0.624,��,1.2,��
2020/10/24,12:10,0.647,0.918,0.588,1.123,0.809,0.380,0.658,0.624,���k��,3.2,��
2020/10/24,12:20,0.646,0.919,0.591,1.121,0.809,0.379,0.658,0.624,��,7.6,��
2020/10/24,12:30,0.646,0.921,0.587,1.122,0.808,0.381,0.659,0.625,��,9.1,��
2020/10/24,12:40,0.647,0.921,0.587,1.125,0.811,0.382,0.659,0.624,��,7.2,��
2020/10/24,12:50,0.647,0.918,0.589,1.125,0.809,0.382,0.658,0.626,��,7.1,��
2020/10/24,13:00,0.646,0.919,0.587,1.123,0.810,0.379,0.660,0.625,��,9.2,��
2020/10/24,13:10,0.646,0.918,0.586,1.127,0.809,0.380,0.661,0.623,��,8.6,��
2020/10/24,13:20,0.647,0.921,0.586,1.124,0.808,0.379,0.659,0.623,��,7.1,��
2020/10/24,13:30,0.645,0.917,0.586,1.129,0.811,0.379,0.659,0.622,��,4.3,��
2020/10/24,13:40,0.647,0.918,0.586,1.126,0.810,0.381,0.661,0.622,��,3.3,��
2020/10/24,13:50,0.647,0.920,0.588,1.128,0.809,0.380,0.659,0.621,��,5.4,��
2020/10/24,14:00,0.645,0.919,0.586,1.126,0.811,0.381,0.659,0.623,�쐼,5.7,��
2020/10/24,14:10,0.647,0.919,0.587,1.128,0.812,0.381,0.662,0.622,��,4.3,��
2020/10/24,14:20,0.648,0.919,0.586,1.128,0.810,0.380,0.659,0.622,��,4.0,��
2020/10/24,14:30,0.648,0.922,0.586,1.126,0.811,0.380,0.661,0.624,�쐼,3.3,��
2020/10/24,14:40,0.646,0.921,0.587,1.129,0.812,0.381,0.660,0.623,�쐼,3.7,��
2020/10/24,14:50,0.647,0.920,0.588,1.127,0.810,0.380,0.660,0.622,��,4.0,��
2020/10/24,15:00,0.646,0.923,0.587,1.127,0.810,0.380,0.660,0.622,��쓌,4.8,��
2020/10/24,15:10,0.646,0.921,0.589,1.128,0.810,0.379,0.659,0.623,��,4.1,��
2020/10/24,15:20,0.649,0.923,0.588,1.129,0.811,0.380,0.661,0.624,��쓌,5.5,��
2020/10/24,15:30,0.645,0.923,0.587,1.127,0.812,0.379,0.661,0.622,��쓌,5.2,��
2020/10/24,15:40,0.645,0.922,0.587,1.128,0.812,0.380,0.661,0.625,��,2.9,��
2020/10/24,15:50,0.647,0.922,0.587,1.127,0.811,0.381,0.661,0.624,��,3.3,��
2020/10/24,16:00,0.646,0.923,0.588,1.127,0.812,0.382,0.662,0.625,��,2.2,��
2020/10/24,16:10,0.647,0.922,0.587,1.125,0.812,0.381,0.660,0.625,��,2.2,��
2020/10/24,16:20,0.644,0.923,0.585,1.129,0.811,0.382,0.662,0.625,��,3.1,��
2020/10/24,16:30,0.647,0.925,0.587,1.128,0.813,0.381,0.661,0.625,��쐼,3.8,��
2020/10/24,16:40,0.645,0.926,0.586,1.127,0.814,0.381,0.662,0.625,��쐼,3.8,��
2020/10/24,16:50,0.647,0.926,0.589,1.126,0.812,0.383,0.659,0.626,�쐼,4.2,�L
2020/10/24,17:00,0.648,0.927,0.590,1.128,0.815,0.383,0.661,0.624,��,4.6,�L
2020/10/24,17:10,0.648,0.927,0.591,1.132,0.815,0.383,0.661,0.625,��,6.8,�L
2020/10/24,17:20,0.650,0.927,0.591,1.132,0.814,0.384,0.660,0.624,��,6.8,�L
2020/10/24,17:30,0.651,0.925,0.591,1.132,0.816,0.386,0.661,0.625,���k��,6.5,�L
2020/10/24,17:40,0.650,0.924,0.592,1.130,0.815,0.385,0.661,0.626,��,4.9,��
2020/10/24,17:50,0.649,0.924,0.592,1.129,0.814,0.384,0.659,0.625,���쐼,4.5,��
2020/10/24,18:00,0.648,0.924,0.591,1.129,0.816,0.385,0.659,0.625,���k��,5.5,�L
2020/10/24,18:10,0.648,0.922,0.590,1.130,0.816,0.384,0.658,0.625,���k��,5.5,��
2020/10/24,18:20,0.649,0.922,0.589,1.128,0.813,0.383,0.661,0.625,��,4.9,��
2020/10/24,18:30,0.647,0.922,0.590,1.128,0.811,0.383,0.660,0.625,��,6.8,��
2020/10/24,18:40,0.647,0.922,0.589,1.126,0.810,0.382,0.660,0.625,��,9.3,��
2020/10/24,18:50,0.646,0.922,0.589,1.127,0.810,0.382,0.660,0.625,��,8.2,��
2020/10/24,19:00,0.646,0.921,0.587,1.126,0.813,0.382,0.658,0.625,���쐼,8.0,��
2020/10/24,19:10,0.646,0.921,0.587,1.127,0.811,0.382,0.659,0.623,��,6.4,�L
2020/10/24,19:20,0.647,0.920,0.588,1.125,0.812,0.381,0.658,0.625,��,6.5,�L
2020/10/24,19:30,0.645,0.921,0.588,1.127,0.812,0.380,0.659,0.624,��,7.3,�L
2020/10/24,19:40,0.645,0.920,0.589,1.129,0.812,0.382,0.659,0.626,��,8.5,�L
2020/10/24,19:50,0.645,0.920,0.587,1.126,0.813,0.380,0.660,0.625,���쐼,7.0,��
2020/10/24,20:00,0.644,0.919,0.588,1.126,0.813,0.379,0.659,0.625,��,5.4,��
2020/10/24,20:10,0.645,0.919,0.588,1.129,0.811,0.380,0.658,0.625,��,6.6,��
2020/10/24,20:20,0.645,0.921,0.588,1.127,0.812,0.380,0.660,0.625,���k��,5.5,��
2020/10/24,20:30,0.645,0.921,0.587,1.128,0.811,0.380,0.659,0.624,�k��,4.5,��
2020/10/24,20:40,0.647,0.919,0.586,1.130,0.813,0.380,0.660,0.625,�k��,4.7,��
2020/10/24,20:50,0.645,0.924,0.588,1.131,0.811,0.381,0.659,0.625,�k��,6.7,��
2020/10/24,21:00,0.646,0.920,0.588,1.128,0.811,0.380,0.660,0.625,�k��,5.6,��
2020/10/24,21:10,0.645,0.919,0.588,1.129,0.811,0.380,0.658,0.625,�k��,5.2,��
2020/10/24,21:20,0.645,0.920,0.587,1.131,0.811,0.381,0.660,0.625,�k��,5.5,��
2020/10/24,21:30,0.645,0.920,0.585,1.128,0.811,0.380,0.660,0.625,�k��,5.0,��
2020/10/24,21:40,0.645,0.920,0.588,1.125,0.811,0.380,0.658,0.624,�k�k��,4.3,��
2020/10/24,21:50,0.645,0.921,0.587,1.129,0.810,0.381,0.659,0.626,�k,5.4,��
2020/10/24,22:00,0.645,0.920,0.586,1.129,0.812,0.381,0.659,0.625,�k,5.2,��
2020/10/24,22:10,0.645,0.923,0.586,1.130,0.812,0.381,0.659,0.623,�k,2.6,��
2020/10/24,22:20,0.644,0.921,0.587,1.128,0.811,0.380,0.661,0.626,�k�k��,5.3,��
2020/10/24,22:30,0.646,0.922,0.589,1.130,0.812,0.379,0.659,0.626,�k�k��,4.6,��
2020/10/24,22:40,0.645,0.920,0.586,1.129,0.812,0.380,0.660,0.625,�k�k��,3.6,��
2020/10/24,22:50,0.647,0.920,0.587,1.130,0.810,0.381,0.659,0.624,�k,4.2,��
2020/10/24,23:00,0.647,0.921,0.587,1.129,0.812,0.380,0.658,0.624,�k��,3.5,��
2020/10/24,23:10,0.645,0.921,0.588,1.129,0.813,0.380,0.661,0.624,���k��,2.8,��
2020/10/24,23:20,0.646,0.920,0.587,1.128,0.812,0.379,0.661,0.625,���쐼,4.7,��
2020/10/24,23:30,0.645,0.921,0.588,1.130,0.811,0.382,0.659,0.624,�k��,3.4,��
2020/10/24,23:40,0.644,0.918,0.587,1.129,0.811,0.379,0.660,0.626,��,7.0,��
2020/10/24,23:50,0.646,0.921,0.588,1.128,0.813,0.380,0.660,0.625,��,8.2,��
